This demonstration page uses our WeatherBlox Daily Observations layout. Learn more.

Left ArrowRight Arrow

40.92945, -100.16068

Hourly Observations for September 20, 2017

Temp ( °F °C ) Dew Point ( °F °C ) Humidity (%) Winds ( mph kmh ) Pressure ( in mb ) Visibility ( mi km ) Precip ( " mm )
12:15 am 00:15 Clear 62 16.4 46 7.7 57 57 NW 8 13 29.65 1004 10 16 0.00 0.00
12:35 am 00:35 Clear 60 15.3 46 8 62 62 Calm 29.65 1004 10 16 0.00 0.00
12:55 am 00:55 Clear 59 15 47 8.1 64 64 NNW 5 7 29.65 1004 10 16 0.00 0.00
1:15 am 01:15 Clear 56 13.5 47 8.2 71 71 NNW 6 9 29.71 1006 10 16 0.00 0.00
1:35 am 01:35 Clear 53 11.7 47 8.2 79 79 WNW 5 7 29.71 1006 10 16 0.00 0.00
1:55 am 01:55 Clear 51 10.6 46 7.6 82 82 WNW 6 9 29.77 1008 10 16 0.00 0.00
2:15 am 02:15 Clear 52 11 46 7.7 80 80 WNW 7 11 29.74 1007 10 16 0.00 0.00
2:35 am 02:35 Clear 51 10.8 46 7.5 80 80 NW 6 9 29.74 1007 10 16 0.00 0.00
2:55 am 02:55 Clear 51 10.6 45 7.3 80 80 NW 5 7 29.80 1009 10 16 0.00 0.00
3:15 am 03:15 Clear 49 9.3 44 6.4 82 82 WNW 6 9 29.80 1009 10 16 0.00 0.00
3:35 am 03:35 Clear 49 9.3 44 6.9 85 85 WNW 6 9 29.80 1009 10 16 0.00 0.00
3:55 am 03:55 Clear 49 9.3 45 7 86 86 WNW 8 13 29.83 1010 10 16 0.00 0.00
4:15 am 04:15 Clear 49 9.2 44 6.8 85 85 WNW 7 11 29.83 1010 10 16 0.00 0.00
4:35 am 04:35 Clear 48 9 44 6.5 85 85 WNW 8 13 29.83 1010 10 16 0.00 0.00
4:55 am 04:55 Clear 47 8.4 43 6.2 86 86 WNW 7 11 29.83 1010 10 16 0.00 0.00
5:15 am 05:15 Clear 47 8.5 43 6.2 86 86 WNW 7 11 29.83 1010 10 16 0.00 0.00
5:35 am 05:35 Clear 46 8 43 6.1 88 88 NW 8 13 29.88 1012 10 16 0.00 0.00
5:55 am 05:55 Clear 46 8 43 5.9 87 87 NW 5 7 29.88 1012 10 16 0.00 0.00
6:15 am 06:15 Clear 45 7.4 42 5.5 88 88 NW 7 11 29.88 1012 10 16 0.00 0.00
6:35 am 06:35 Clear 45 7.2 42 5.4 88 88 NW 6 9 29.88 1012 10 16 0.00 0.00
6:55 am 06:55 Clear 45 7 42 5.3 89 89 WNW 6 9 29.91 1013 10 16 0.00 0.00
7:15 am 07:15 Clear 45 7 42 5.3 89 89 W 6 9 29.91 1013 10 16 0.00 0.00
7:35 am 07:35 Sunny 45 7 42 5.3 89 89 W 7 11 29.94 1014 10 16 0.00 0.00
7:55 am 07:55 Sunny 46 7.5 42 5.5 87 87 WNW 7 11 29.94 1014 10 16 0.00 0.00
8:15 am 08:15 Sunny 47 8.1 43 6.1 87 87 WNW 6 9 29.94 1014 10 16 0.00 0.00
8:35 am 08:35 Sunny 49 9.6 44 6.5 81 81 WNW 8 13 29.91 1013 10 16 0.00 0.00
8:55 am 08:55 Sunny 51 10.7 44 6.5 75 75 WNW 7 11 29.91 1013 10 16 0.00 0.00
9:15 am 09:15 Sunny 53 11.8 43 6.3 69 69 WNW 8 13 29.94 1014 10 16 0.00 0.00
9:35 am 09:35 Sunny 55 12.8 44 6.7 67 67 WNW 8 13 29.91 1013 10 16 0.00 0.00
9:55 am 09:55 Sunny 58 14.2 45 7.1 63 63 W 7 11 29.91 1013 10 16 0.00 0.00
10:15 am 10:15 Sunny 60 15.3 45 7.2 59 59 W 6 9 29.91 1013 10 16 0.00 0.00
10:35 am 10:35 Sunny 62 16.9 45 7.2 53 53 NW 7 11 29.88 1012 10 16 0.00 0.00
10:55 am 10:55 Sunny 65 18.1 42 5.7 44 44 WNW 7 11 29.88 1012 10 16 0.00 0.00
11:15 am 11:15 Sunny 67 19.2 39 3.7 36 36 NW 8 13 29.88 1012 10 16 0.00 0.00
11:35 am 11:35 Sunny 67 19.7 37 2.7 33 33 NW 7 11 29.85 1011 10 16 0.00 0.00
11:55 am 11:55 Sunny 69 20.7 38 3.1 31 31 WNW 8 13 29.85 1011 10 16 0.00 0.00
12:15 pm 12:15 Sunny 70 21.2 35 1.8 28 28 WNW 9 15 29.85 1011 10 16 0.00 0.00
12:35 pm 12:35 Sunny 71 21.6 37 2.5 28 28 WNW 3 6 29.83 1010 10 16 0.00 0.00
12:55 pm 12:55 Sunny 73 22.6 34 1.3 25 25 NW 9 15 29.80 1009 10 16 0.00 0.00
1:15 pm 13:15 Sunny 73 22.9 34 1 24 24 N 5 7 29.80 1009 10 16 0.00 0.00
1:35 pm 13:35 Sunny 73 23 33 0.5 23 23 WNW 5 7 29.80 1009 10 16 0.00 0.00
1:55 pm 13:55 Sunny 75 23.7 35 1.5 23 23 Calm 29.80 1009 10 16 0.00 0.00
2:15 pm 14:15 Sunny 74 23.6 31 -0.3 21 21 NNW 5 7 29.80 1009 10 16 0.00 0.00
2:35 pm 14:35 Sunny 76 24.2 32 0.1 20 20 W 6 9 29.80 1009 10 16 0.00 0.00
2:55 pm 14:55 Sunny 76 24.3 32 0.2 20 20 Calm 29.80 1009 10 16 0.00 0.00
3:15 pm 15:15 Sunny 77 25 32 0.2 20 20 WNW 3 6 29.77 1008 10 16 0.00 0.00
3:35 pm 15:35 Sunny 77 24.9 33 0.3 20 20 NW 3 6 29.77 1008 10 16 0.00 0.00
3:55 pm 15:55 Sunny 77 25.1 33 0.8 20 20 Calm 29.77 1008 10 16 0.00 0.00
4:15 pm 16:15 Sunny 79 25.9 34 0.9 20 20 S 7 11 29.74 1007 7 11 0.00 0.00
4:35 pm 16:35 Sunny 79 26.2 34 1.1 19 19 ESE 3 6 29.74 1007 10 16 0.00 0.00
4:55 pm 16:55 Sunny 79 26.1 34 1.3 20 20 SSE 5 7 29.74 1007 7 11 0.00 0.00
5:15 pm 17:15 Sunny 78 25.6 34 1 20 20 Calm 29.77 1008 10 16 0.00 0.00
5:35 pm 17:35 Sunny 78 25.8 34 1.1 20 20 SE 8 13 29.74 1007 7 11 0.00 0.00
5:55 pm 17:55 Hazy 79 25.9 37 2.7 22 22 SE 8 13 29.74 1007 5 8 0.00 0.00
6:15 pm 18:15 Sunny 77 25.2 38 3.4 24 24 ESE 7 11 29.77 1008 7 11 0.00 0.00
6:35 pm 18:35 Sunny 76 24.7 39 4 26 26 ESE 8 13 29.77 1008 10 16 0.00 0.00
6:55 pm 18:55 Sunny 76 24.2 39 3.8 27 27 ESE 8 13 29.77 1008 7 11 0.00 0.00
7:15 pm 19:15 Sunny 73 22.7 41 5 32 32 ESE 6 9 29.77 1008 10 16 0.00 0.00
7:35 pm 19:35 Sunny 70 21.1 44 6.4 39 39 ESE 6 9 29.80 1009 10 16 0.00 0.00
7:55 pm 19:55 Clear 69 20.3 44 6.6 41 41 ESE 8 13 29.80 1009 10 16 0.00 0.00
8:15 pm 20:15 Clear 68 19.9 43 6.2 41 41 ESE 7 11 29.80 1009 10 16 0.00 0.00
8:35 pm 20:35 Clear 66 19.1 43 6.2 43 43 SE 7 11 29.83 1010 10 16 0.00 0.00
8:55 pm 20:55 Clear 65 18.5 45 7.1 48 48 ESE 7 11 29.85 1011 10 16 0.00 0.00
9:15 pm 21:15 Clear 65 18.1 45 7.2 49 49 SE 6 9 29.85 1011 10 16 0.00 0.00
9:35 pm 21:35 Clear 62 16.8 45 7.4 54 54 ESE 3 6 29.85 1011 10 16 0.00 0.00
9:55 pm 21:55 Clear 58 14.7 45 7.3 61 61 Calm 29.88 1012 10 16 0.00 0.00
10:15 pm 22:15 Clear 55 12.9 45 7.4 69 69 ESE 5 7 29.88 1012 10 16 0.00 0.00
10:35 pm 22:35 Clear 58 14.4 46 8 66 66 ESE 6 9 29.88 1012 10 16 0.00 0.00
10:55 pm 22:55 Clear 60 15.5 46 8 61 61 ESE 3 6 29.88 1012 10 16 0.00 0.00
11:15 pm 23:15 Clear 54 12 45 7.2 73 73 Calm 29.91 1013 10 16 0.00 0.00
11:35 pm 23:35 Clear 55 12.7 46 7.6 71 71 E 3 6 29.88 1012 10 16 0.00 0.00
11:55 pm 23:55 Clear 54 12.1 46 7.5 74 74 E 3 6 29.91 1013 10 16 0.00 0.00

Powered by AerisWeather